| time (UTC) | temp C | wind direction | speed KPH | gust KPH | rain 1hr cm | rain 24hr cm | rain mn cm | humidity % | barometer mb |
| 20260504190023 | 22 | 176 | 14.5 | 27.4 | 0.00 | 0.00 | 0.00 | 34 | 1003.9 |
| 20260504184520 | 22 | 127 | 14.5 | 40.2 | 0.00 | 0.00 | 0.00 | 37 | 1004.1 |
| 20260504183017 | 22 | 142 | 11.3 | 35.4 | 0.00 | 0.00 | 0.00 | 37 | 1004.3 |
| 20260504181525 | 22 | 134 | 20.9 | 37.0 | 0.00 | 0.00 | 0.00 | 36 | 1004.6 |
| 20260504180015 | 21 | 128 | 14.5 | 40.2 | 0.00 | 0.00 | 0.00 | 39 | 1004.6 |
| 20260504174512 | 21 | 105 | 12.9 | 29.0 | 0.00 | 0.00 | 0.00 | 40 | 1004.7 |
| 20260504173010 | 21 | 162 | 11.3 | 29.0 | 0.00 | 0.00 | 0.00 | 41 | 1004.6 |
| 20260504171607 | 21 | 150 | 16.1 | 37.0 | 0.00 | 0.00 | 0.00 | 40 | 1004.8 |
| 20260504081516 | 10 | 176 | 8.0 | 16.1 | 0.00 | 0.00 | 0.00 | 56 | 1007.4 |
| 20260504044526 | 10 | 168 | 1.6 | 11.3 | 0.00 | 0.00 | 0.00 | 58 | 1008.6 |
| 20260504043021 | 10 | 179 | 8.0 | 14.5 | 0.00 | 0.00 | 0.00 | 57 | 1008.7 |
| 20260504041516 | 10 | 129 | 6.4 | 17.7 | 0.00 | 0.00 | 0.00 | 56 | 1008.6 |
| 20260504040002 | 10 | 148 | 6.4 | 16.1 | 0.00 | 0.00 | 0.00 | 55 | 1008.7 |
| 20260504034556 | 10 | 147 | 6.4 | 14.5 | 0.00 | 0.00 | 0.00 | 54 | 1008.6 |
| 20260504033059 | 11 | 143 | 4.8 | 17.7 | 0.00 | 0.00 | 0.00 | 53 | 1008.6 |
| 20260504031558 | 11 | 168 | 6.4 | 17.7 | 0.00 | 0.00 | 0.00 | 52 | 1008.6 |
| 20260504030048 | 11 | 169 | 9.7 | 20.9 | 0.00 | 0.00 | 0.00 | 51 | 1008.8 |
| 20260504024547 | 11 | 179 | 6.4 | 24.1 | 0.00 | 0.00 | 0.00 | 50 | 1008.7 |
| 20260504023034 | 12 | 158 | 12.9 | 25.7 | 0.00 | 0.00 | 0.00 | 49 | 1008.8 |
| 20260504021530 | 12 | 153 | 11.3 | 25.7 | 0.00 | 0.00 | 0.00 | 49 | 1008.9 |
| 20260504020008 | 11 | 241 | 8.0 | 19.3 | 0.00 | 0.00 | 0.00 | 50 | 1009.1 |
| 20260504014502 | 12 | 173 | 11.3 | 20.9 | 0.00 | 0.00 | 0.00 | 48 | 1009.2 |
| 20260504013056 | 12 | 195 | 3.2 | 20.9 | 0.00 | 0.00 | 0.00 | 47 | 1009.2 |
| 20260504011543 | 12 | 176 | 8.0 | 20.9 | 0.00 | 0.00 | 0.00 | 47 | 1009.2 |
| 20260504010038 | 12 | 139 | 8.0 | 29.0 | 0.00 | 0.00 | 0.00 | 47 | 1009.1 |
| 20260504004542 | 12 | 160 | 12.9 | 35.4 | 0.00 | 0.00 | 0.00 | 47 | 1009.0 |
| 20260504003029 | 12 | 215 | 9.7 | 37.0 | 0.00 | 0.00 | 0.00 | 49 | 1009.5 |
| 20260504001525 | 12 | 170 | 16.1 | 30.6 | 0.00 | 0.00 | 0.00 | 47 | 1009.4 |
| 20260504000021 | 12 | 180 | 16.1 | 38.6 | 0.00 | 0.00 | 0.00 | 47 | 1009.5 |
| 20260503234516 | 12 | 233 | 14.5 | 33.8 | 0.00 | 0.00 | 0.00 | 46 | 1009.3 |
| 20260503233056 | 12 | 169 | 4.8 | 29.0 | 0.00 | 0.00 | 0.00 | 46 | 1009.2 |
| 20260503231555 | 12 | 175 | 11.3 | 33.8 | 0.00 | 0.00 | 0.00 | 46 | 1009.2 |
| 20260503230050 | 12 | 176 | 27.4 | 57.9 | 0.00 | 0.00 | 0.00 | 46 | 1009.5 |
| 20260503224542 | 12 | 223 | 12.9 | 38.6 | 0.00 | 0.00 | 0.00 | 45 | 1009.4 |
| 20260503223037 | 12 | 207 | 12.9 | 33.8 | 0.00 | 0.00 | 0.00 | 46 | 1009.4 |
| 20260503221533 | 13 | 172 | 12.9 | 48.3 | 0.00 | 0.00 | 0.00 | 44 | 1009.2 |
| 20260503220030 | 13 | 221 | 9.7 | 33.8 | 0.00 | 0.00 | 0.00 | 42 | 1009.1 |
| 20260503214521 | 13 | 231 | 12.9 | 41.8 | 0.00 | 0.00 | 0.00 | 42 | 1009.0 |
| 20260503213103 | 13 | 264 | 14.5 | 38.6 | 0.00 | 0.00 | 0.00 | 39 | 1009.1 |
| 20260503211603 | 14 | 153 | 9.7 | 30.6 | 0.00 | 0.00 | 0.00 | 40 | 1008.9 |
| 20260503210033 | 14 | 254 | 19.3 | 35.4 | 0.00 | 0.00 | 0.00 | 38 | 1008.7 |
| 20260503204531 | 14 | 231 | 9.7 | 38.6 | 0.00 | 0.00 | 0.00 | 40 | 1009.0 |
| 20260503203006 | 14 | 89 | 12.9 | 43.5 | 0.00 | 0.00 | 0.00 | 40 | 1009.1 |
| 20260503201502 | 14 | 159 | 16.1 | 38.6 | 0.00 | 0.00 | 0.00 | 39 | 1009.3 |
| 20260503200047 | 15 | 47 | 20.9 | 38.6 | 0.00 | 0.00 | 0.00 | 38 | 1009.6 |
| 20260503194545 | 14 | 144 | 11.3 | 43.5 | 0.00 | 0.00 | 0.00 | 38 | 1009.7 |
| 20260503193041 | 13 | 199 | 9.7 | 38.6 | 0.00 | 0.00 | 0.00 | 40 | 1009.9 |
| 20260503191533 | 13 | 216 | 16.1 | 41.8 | 0.00 | 0.00 | 0.00 | 40 | 1010.1 |